SKW3022 KMFR-KSAN

Flight info

Callsign SKW3022
Flight time N/A
Altitude 33000
Route JKSN1 OED RBL FRA HUULK COMIX2
Aircraft E175/M-SDE3GILORVW/S

Departure

Time 2026-04-12 22:09
Airport Rogue Valley International-Medford Airport (KMFR)

Arrival

Time N/A
Airport San Diego International Airport (KSAN)
Time Latitude Longitude Altitude Speed Heading
2026-04-12 21:25 42.36863 -122.87322 1323 ft 0 kts 247°
2026-04-12 21:32 42.36863 -122.87321 1323 ft 0 kts 247°
2026-04-12 21:32 42.36863 -122.87322 1323 ft 0 kts 247°
2026-04-12 21:34 42.36863 -122.87321 1323 ft 0 kts 247°
2026-04-12 21:35 42.36863 -122.87322 1323 ft 0 kts 247°
2026-04-12 21:38 42.36863 -122.87321 1323 ft 0 kts 247°
2026-04-12 21:39 42.36863 -122.87322 1323 ft 0 kts 247°
2026-04-12 21:44 42.36863 -122.87321 1323 ft 0 kts 247°
2026-04-12 21:44 42.36863 -122.87322 1323 ft 0 kts 247°
2026-04-12 22:00 42.36863 -122.87321 1323 ft 0 kts 247°
2026-04-12 22:01 42.36871 -122.87295 1323 ft 4 kts 247°
2026-04-12 22:01 42.36882 -122.87261 1323 ft 4 kts 247°
2026-04-12 22:01 42.36892 -122.87228 1323 ft 4 kts 247°
2026-04-12 22:01 42.36904 -122.87198 1323 ft 4 kts 215°
2026-04-12 22:02 42.36926 -122.87191 1323 ft 4 kts 162°
2026-04-12 22:02 42.36947 -122.87201 1323 ft 4 kts 159°
2026-04-12 22:02 42.36954 -122.87205 1323 ft 0 kts 159°
2026-04-12 22:05 42.36949 -122.87202 1323 ft 2 kts 159°
2026-04-12 22:05 42.36928 -122.87192 1323 ft 4 kts 159°
2026-04-12 22:05 42.36894 -122.87174 1323 ft 6 kts 159°
2026-04-12 22:05 42.36847 -122.87150 1326 ft 8 kts 159°
2026-04-12 22:06 42.36786 -122.87119 1323 ft 11 kts 159°
2026-04-12 22:06 42.36711 -122.87080 1323 ft 13 kts 159°
2026-04-12 22:06 42.36625 -122.87032 1323 ft 14 kts 158°
2026-04-12 22:06 42.36530 -122.86981 1326 ft 14 kts 159°
2026-04-12 22:07 42.36445 -122.86937 1329 ft 13 kts 159°
2026-04-12 22:07 42.36371 -122.86892 1336 ft 10 kts 147°
2026-04-12 22:07 42.36366 -122.86803 1339 ft 13 kts 63°
2026-04-12 22:07 42.36396 -122.86756 1340 ft 4 kts 357°
2026-04-12 22:08 42.36413 -122.86763 1334 ft 0 kts 339°
2026-04-12 22:08 42.36507 -122.86812 1332 ft 47 kts 339°
2026-04-12 22:08 42.37030 -122.87093 1327 ft 113 kts 339°
2026-04-12 22:08 42.37959 -122.87572 1377 ft 163 kts 338°
2026-04-12 22:09 42.39011 -122.88093 2192 ft 161 kts 335°
2026-04-12 22:09 42.40112 -122.88759 2681 ft 180 kts 335°
2026-04-12 22:09 42.41290 -122.89398 3253 ft 186 kts 342°
2026-04-12 22:09 42.42588 -122.89790 3759 ft 197 kts 349°
2026-04-12 22:10 42.43974 -122.90122 4289 ft 209 kts 348°
2026-04-12 22:10 42.45433 -122.90783 4587 ft 235 kts 325°
2026-04-12 22:10 42.46544 -122.92476 5031 ft 249 kts 294°
2026-04-12 22:10 42.46977 -122.94740 5416 ft 263 kts 273°
2026-04-12 22:11 42.46605 -122.97234 4928 ft 271 kts 239°
2026-04-12 22:11 42.45301 -122.98879 5038 ft 258 kts 208°
2026-04-12 22:11 42.43535 -122.99527 5067 ft 266 kts 181°
2026-04-12 22:11 42.41712 -122.99142 5271 ft 263 kts 167°
2026-04-12 22:12 42.39942 -122.98592 6103 ft 260 kts 169°
2026-04-12 22:12 42.38152 -122.98135 6773 ft 263 kts 171°
2026-04-12 22:12 42.36354 -122.97738 7330 ft 267 kts 171°
2026-04-12 22:12 42.34504 -122.97351 7966 ft 268 kts 171°
2026-04-12 22:13 42.32650 -122.96941 8561 ft 271 kts 171°
2026-04-12 22:13 42.30786 -122.96516 9178 ft 273 kts 171°
2026-04-12 22:13 42.28870 -122.96078 9761 ft 276 kts 170°
2026-04-12 22:13 42.26996 -122.95633 10194 ft 281 kts 170°
2026-04-12 22:14 42.25011 -122.95118 10296 ft 299 kts 168°
2026-04-12 22:14 42.22928 -122.94502 10422 ft 313 kts 167°
2026-04-12 22:14 42.20756 -122.93827 10547 ft 326 kts 167°
2026-04-12 22:14 42.18524 -122.93118 10832 ft 332 kts 167°
2026-04-12 22:15 42.16264 -122.92448 11270 ft 334 kts 168°
2026-04-12 22:15 42.13969 -122.91809 11604 ft 339 kts 168°
2026-04-12 22:15 42.11663 -122.91139 12102 ft 339 kts 167°
2026-04-12 22:15 42.09350 -122.90472 12528 ft 343 kts 167°
2026-04-12 22:16 42.06998 -122.89816 12975 ft 346 kts 168°
2026-04-12 22:16 42.04640 -122.89151 13455 ft 348 kts 167°
2026-04-12 22:16 42.02260 -122.88471 13926 ft 351 kts 167°
2026-04-12 22:16 41.99863 -122.87795 14386 ft 353 kts 167°
2026-04-12 22:17 41.97443 -122.87084 14769 ft 357 kts 167°
2026-04-12 22:17 41.95009 -122.86356 15264 ft 358 kts 167°
2026-04-12 22:17 41.92570 -122.85647 15782 ft 360 kts 167°
2026-04-12 22:17 41.90118 -122.84948 16284 ft 362 kts 167°
2026-04-12 22:18 41.87644 -122.84239 16757 ft 365 kts 167°
2026-04-12 22:18 41.85156 -122.83530 17255 ft 367 kts 167°
2026-04-12 22:18 41.82651 -122.82805 17733 ft 370 kts 167°
2026-04-12 22:18 41.80127 -122.82063 18218 ft 373 kts 167°
2026-04-12 22:19 41.77588 -122.81313 18655 ft 375 kts 167°
2026-04-12 22:19 41.75025 -122.80559 19030 ft 379 kts 166°
2026-04-12 22:19 41.72444 -122.79769 19446 ft 381 kts 166°
2026-04-12 22:19 41.69851 -122.78980 19888 ft 384 kts 166°
2026-04-12 22:20 41.67239 -122.78183 20323 ft 386 kts 166°
2026-04-12 22:20 41.64611 -122.77386 20743 ft 389 kts 166°
2026-04-12 22:20 41.61969 -122.76580 21168 ft 391 kts 166°
2026-04-12 22:20 41.59323 -122.75764 21678 ft 391 kts 166°
2026-04-12 22:21 41.56667 -122.74945 22094 ft 393 kts 166°
2026-04-12 22:21 41.53998 -122.74115 22505 ft 395 kts 166°
2026-04-12 22:21 41.51309 -122.73275 22915 ft 398 kts 167°
2026-04-12 22:21 41.48611 -122.72425 23317 ft 400 kts 166°
2026-04-12 22:22 41.45895 -122.71560 23676 ft 402 kts 166°
2026-04-12 22:22 41.43165 -122.70684 24008 ft 405 kts 166°
2026-04-12 22:22 41.40434 -122.69806 24459 ft 404 kts 166°
2026-04-12 22:22 41.37701 -122.68940 24862 ft 405 kts 166°
2026-04-12 22:23 41.34945 -122.68058 25126 ft 410 kts 165°
2026-04-12 22:23 41.32173 -122.67138 25431 ft 413 kts 165°
2026-04-12 22:23 41.29383 -122.66213 25846 ft 413 kts 165°
2026-04-12 22:23 41.26597 -122.65297 26297 ft 412 kts 165°
2026-04-12 22:24 41.23816 -122.64390 26848 ft 410 kts 165°
2026-04-12 22:24 41.21056 -122.63494 27346 ft 409 kts 165°
2026-04-12 22:24 41.18288 -122.62600 27769 ft 409 kts 166°
2026-04-12 22:24 41.15556 -122.61715 28200 ft 410 kts 165°
2026-04-12 22:25 41.12789 -122.60800 28626 ft 410 kts 165°
2026-04-12 22:25 41.10019 -122.59882 29075 ft 411 kts 165°
2026-04-12 22:25 41.07250 -122.58966 29511 ft 411 kts 165°
2026-04-12 22:25 41.04477 -122.58035 29965 ft 411 kts 165°
2026-04-12 22:26 41.01705 -122.57105 30321 ft 411 kts 165°
2026-04-12 22:26 40.98929 -122.56164 30683 ft 412 kts 165°
2026-04-12 22:26 40.96159 -122.55220 31062 ft 412 kts 165°
2026-04-12 22:26 40.93372 -122.54265 31308 ft 415 kts 165°
2026-04-12 22:27 40.90577 -122.53286 31614 ft 417 kts 165°
2026-04-12 22:27 40.87768 -122.52304 31969 ft 416 kts 166°
2026-04-12 22:27 40.84967 -122.51339 32300 ft 417 kts 166°
2026-04-12 22:27 40.82161 -122.50365 32641 ft 416 kts 166°
2026-04-12 22:28 40.79358 -122.49388 32909 ft 418 kts 167°
2026-04-12 22:28 40.76569 -122.48403 33319 ft 415 kts 166°
2026-04-12 22:28 40.70887 -122.46329 33282 ft 431 kts 166°
2026-04-12 22:29 40.67955 -122.45230 33048 ft 442 kts 166°
2026-04-12 22:29 40.64999 -122.44116 33101 ft 445 kts 166°
2026-04-12 22:29 40.58996 -122.41914 33088 ft 448 kts 167°
2026-04-12 22:30 40.52982 -122.39705 33084 ft 447 kts 166°
2026-04-12 22:30 40.46943 -122.37493 33100 ft 453 kts 167°
2026-04-12 22:31 40.40882 -122.35276 33089 ft 452 kts 167°
2026-04-12 22:31 40.34843 -122.33072 33092 ft 447 kts 166°
2026-04-12 22:32 40.28847 -122.30899 33089 ft 448 kts 167°
2026-04-12 22:32 40.22840 -122.28715 33088 ft 448 kts 168°
2026-04-12 22:33 40.16853 -122.26535 33084 ft 446 kts 168°
2026-04-12 22:33 40.10882 -122.24347 33080 ft 447 kts 164°
2026-04-12 22:34 40.08053 -122.22602 33105 ft 453 kts 150°
2026-04-12 22:34 40.05434 -122.20306 33109 ft 454 kts 147°
2026-04-12 22:34 40.00303 -122.15476 33065 ft 454 kts 147°
2026-04-12 22:35 39.95172 -122.10701 33067 ft 454 kts 147°
2026-04-12 22:35 39.90058 -122.05970 33067 ft 452 kts 148°
2026-04-12 22:36 39.84912 -122.01230 33084 ft 454 kts 148°
2026-04-12 22:36 39.79753 -121.96484 33084 ft 454 kts 148°
2026-04-12 22:37 39.74602 -121.91753 33085 ft 454 kts 148°
2026-04-12 22:37 39.69419 -121.87002 33079 ft 456 kts 148°
2026-04-12 22:38 39.64238 -121.82261 33086 ft 456 kts 148°
2026-04-12 22:38 39.59060 -121.77531 33125 ft 454 kts 149°
2026-04-12 22:39 39.53860 -121.72794 33132 ft 457 kts 149°
2026-04-12 22:40 39.46055 -121.65695 33139 ft 457 kts 149°
2026-04-12 22:40 39.40820 -121.60948 33143 ft 462 kts 149°
2026-04-12 22:41 39.35562 -121.56183 33117 ft 461 kts 149°
2026-04-12 22:41 39.30315 -121.51440 33121 ft 459 kts 150°
2026-04-12 22:42 39.25058 -121.46699 33121 ft 463 kts 150°
2026-04-12 22:42 39.19787 -121.41951 33122 ft 462 kts 150°
2026-04-12 22:43 39.14512 -121.37210 33115 ft 462 kts 150°
2026-04-12 22:43 39.09226 -121.32424 33111 ft 465 kts 150°
2026-04-12 22:44 39.03940 -121.27659 33483 ft 456 kts 150°
2026-04-12 22:44 39.01365 -121.25359 34113 ft 448 kts 151°
2026-04-12 22:44 38.99676 -121.23856 34395 ft 444 kts 151°
2026-04-12 22:44 38.97147 -121.21607 34669 ft 441 kts 151°
2026-04-12 22:45 38.94627 -121.19369 34906 ft 440 kts 151°
2026-04-12 22:45 38.92108 -121.17131 35114 ft 439 kts 151°
2026-04-12 22:45 38.88768 -121.14165 35267 ft 445 kts 151°
2026-04-12 22:46 38.84446 -121.10330 35150 ft 460 kts 151°
2026-04-12 22:46 38.79126 -121.05602 35174 ft 468 kts 151°
2026-04-12 22:47 38.73780 -121.00854 35135 ft 466 kts 151°
2026-04-12 22:47 38.68661 -120.96327 35129 ft 468 kts 151°
2026-04-12 22:48 38.63419 -120.91704 35180 ft 469 kts 152°
2026-04-12 22:48 38.58084 -120.87002 35156 ft 468 kts 152°
2026-04-12 22:49 38.52682 -120.82248 35174 ft 468 kts 152°
2026-04-12 22:49 38.47349 -120.77567 35178 ft 468 kts 152°
2026-04-12 22:50 38.41975 -120.72857 35171 ft 468 kts 152°
2026-04-12 22:50 38.36603 -120.68155 35176 ft 468 kts 152°
2026-04-12 22:51 38.31232 -120.63464 35169 ft 468 kts 152°
2026-04-12 22:51 38.25859 -120.58781 35135 ft 468 kts 152°
2026-04-12 22:52 38.20492 -120.54113 35135 ft 468 kts 152°
2026-04-12 22:52 38.15118 -120.49445 35147 ft 468 kts 153°
2026-04-12 22:53 38.09750 -120.44792 35137 ft 467 kts 153°
2026-04-12 22:53 38.04382 -120.40145 35142 ft 467 kts 153°
2026-04-12 22:54 37.99025 -120.35516 35151 ft 465 kts 153°
2026-04-12 22:54 37.93663 -120.30901 35152 ft 470 kts 153°
2026-04-12 22:55 37.88186 -120.26191 35141 ft 482 kts 153°
2026-04-12 22:55 37.82578 -120.21376 35136 ft 492 kts 153°
2026-04-12 22:56 37.76897 -120.16500 35138 ft 495 kts 153°
2026-04-12 22:56 37.71205 -120.11621 35131 ft 495 kts 153°
2026-04-12 22:57 37.65506 -120.06751 35162 ft 496 kts 153°
2026-04-12 22:57 37.59803 -120.01893 35137 ft 495 kts 153°
2026-04-12 22:58 37.54095 -119.97029 35142 ft 495 kts 154°
2026-04-12 22:58 37.48416 -119.92210 35157 ft 497 kts 154°
2026-04-12 22:59 37.44710 -119.89063 35168 ft 496 kts 154°
2026-04-12 22:59 37.39276 -119.84459 35161 ft 496 kts 154°
2026-04-12 23:00 37.33604 -119.79665 35177 ft 492 kts 154°
2026-04-12 23:00 37.29792 -119.76454 35164 ft 493 kts 154°
2026-04-12 23:01 37.28294 -119.75191 35167 ft 493 kts 154°
2026-04-12 23:01 37.22619 -119.70567 35180 ft 489 kts 156°
2026-04-12 23:02 37.16784 -119.66104 35144 ft 486 kts 158°
2026-04-12 23:02 37.11947 -119.62609 35135 ft 484 kts 159°
2026-04-12 23:03 37.06051 -119.58585 35160 ft 481 kts 161°
2026-04-12 23:03 37.00058 -119.54773 35116 ft 479 kts 163°
2026-04-12 23:04 36.94096 -119.51273 35148 ft 475 kts 165°
2026-04-12 23:04 36.88051 -119.47991 35164 ft 472 kts 167°
2026-04-12 23:05 36.81976 -119.44959 35162 ft 469 kts 169°
2026-04-12 23:05 36.75865 -119.42169 35154 ft 466 kts 171°
2026-04-12 23:06 36.69730 -119.39601 35153 ft 464 kts 172°
2026-04-12 23:06 36.63574 -119.37265 35133 ft 461 kts 174°
2026-04-12 23:07 36.57397 -119.35170 35135 ft 458 kts 175°
2026-04-12 23:07 36.51220 -119.33264 35144 ft 456 kts 177°
2026-04-12 23:08 36.45038 -119.31602 35143 ft 453 kts 179°
2026-04-12 23:08 36.38856 -119.30185 35103 ft 450 kts 181°
2026-04-12 23:09 36.32687 -119.29012 35131 ft 447 kts 182°
2026-04-12 23:09 36.23454 -119.27705 35175 ft 443 kts 185°
2026-04-12 23:10 36.17331 -119.27136 35189 ft 440 kts 187°
2026-04-12 23:10 36.11233 -119.26806 35243 ft 437 kts 188°
2026-04-12 23:11 36.05174 -119.26716 35249 ft 434 kts 190°
2026-04-12 23:11 35.99149 -119.26863 35215 ft 431 kts 192°
2026-04-12 23:12 35.93180 -119.27247 35234 ft 428 kts 194°
2026-04-12 23:12 35.87269 -119.27866 35251 ft 425 kts 195°
2026-04-12 23:13 35.84553 -119.28231 35259 ft 424 kts 196°
2026-04-12 23:13 35.82221 -119.28584 35267 ft 423 kts 197°
2026-04-12 23:14 35.76421 -119.29626 35238 ft 420 kts 199°